User: anonymous   Login
Location: Unspecified
(0.0000°N, 0.0000°E)
Time: 05:27:18
(UTC+00:00)
Language:

Snapshot - Orbit

View from above orbital plane
View from above orbital plane
View from above satellite
View from above satellite

Ground track
Ground track

The orbit data is extracted from the following two-line orbital elements,

1  1314U 65027A   17112.92524822 +.00000024 +00000-0 +64347-4 0  9999
2  1314 090.3030 283.1914 0030494 007.5613 112.6992 12.91749762199520
Epoch (UTC): 22 April 2017 22:12:21
Eccentricity: 0.0030494
inclination: 90.3030°
perigee height: 1271 km
apogee height: 1318 km
right ascension of ascending node: 283.1914°
argument of perigee: 7.5613°
revolutions per day: 12.91749762
mean anomaly at epoch: 112.6992°
orbit number at epoch: 19952

The dashed part of the orbit path shows where the satellite is in the earth's shadow,  

DLR